Location: Unspecified
(0.0000°N, 0.0000°E)
Time: 03:37:43
(UTC+00:00)

Vanguard 1 - Visible Passes

Search period start: 18 September 2014 00:00
Search period end: 28 September 2014 00:00
Orbit: 650 x 3838 km, 34.3° (Epoch: 07 September)

Date Brightness Start Highest point End Pass type
(mag) Time Alt. Az. Time Alt. Az. Time Alt. Az.
18 Sep 12.9 02:10:22 14° ESE 02:10:22 14° ESE 02:11:10 10° ESE visible
18 Sep 11.6 04:23:10 26° SW 04:23:32 26° SW 04:29:10 10° SSE visible
18 Sep 14.0 18:38:20 10° NW 18:52:01 22° N 19:08:19 10° NNE visible
18 Sep 13.7 21:11:29 10° NW 21:27:31 22° N 21:30:17 21° NNE visible
18 Sep 14.0 23:39:51 10° NW 23:42:59 15° NNW 23:42:59 15° NNW visible
19 Sep 12.6 02:30:59 20° SE 02:30:59 20° SE 02:32:42 10° SE visible
19 Sep 12.1 04:43:46 16° SW 04:44:58 16° SW 04:49:09 10° S visible
19 Sep 14.0 19:02:53 10° NW 19:16:29 20° N 19:31:45 10° NE visible
19 Sep 13.7 21:34:24 10° NNW 21:49:59 25° N 21:49:59 25° N visible
20 Sep 14.2 00:01:49 10° NW 00:02:41 12° NW 00:02:41 12° NW visible
20 Sep 12.3 02:51:32 24° SSE 02:51:32 24° SSE 02:53:58 10° SE visible
20 Sep 14.0 19:27:14 10° NW 19:41:11 20° N 19:56:00 10° NE visible
20 Sep 13.6 21:56:48 10° NNW 22:09:42 27° N 22:09:42 27° N visible
21 Sep 12.1 03:12:01 25° S 03:12:01 25° S 03:14:58 10° SSE visible
21 Sep 13.8 19:51:00 10° NW 20:05:54 20° N 20:16:44 15° NE visible
21 Sep 13.7 22:18:54 10° NW 22:29:26 27° NNW 22:29:26 27° NNW visible
22 Sep 12.2 03:32:26 23° S 03:32:26 23° S 03:35:40 10° SSE visible
22 Sep 13.7 20:14:05 10° NNW 20:30:25 23° NNE 20:36:30 21° NNE visible
22 Sep 13.7 22:40:52 10° NW 22:49:13 25° NNW 22:49:13 25° NNW visible
23 Sep 12.4 03:52:47 17° SSW 03:52:47 17° SSW 03:55:56 10° S visible
23 Sep 14.0 18:08:06 10° NW 18:19:44 18° N 18:33:40 10° NE visible
23 Sep 13.5 20:36:35 10° NNW 20:54:36 27° NNE 20:56:18 27° NNE visible
23 Sep 13.8 23:02:50 10° NW 23:09:01 22° NW 23:09:01 22° NW visible
24 Sep 12.6 04:13:05 12° SSW 04:13:05 12° SSW 04:14:57 10° SSW visible
24 Sep 14.0 18:31:53 10° NNW 18:44:18 19° N 18:58:32 10° NE visible
24 Sep 13.4 20:58:43 10° NNW 21:16:09 32° NNE 21:16:09 32° NNE visible
24 Sep 14.0 23:24:53 10° NW 23:28:52 18° NW 23:28:52 18° NW visible
25 Sep 13.0 02:20:35 13° SSE 02:20:35 13° SSE 02:21:12 10° SSE visible
25 Sep 13.9 18:55:02 10° NNW 19:08:51 20° NNE 19:23:20 11° NE visible
25 Sep 13.4 21:20:37 10° NW 21:36:03 36° N 21:36:03 36° N visible
25 Sep 14.1 23:47:07 10° NW 23:48:47 13° NW 23:48:47 13° NW visible
26 Sep 12.9 02:40:48 14° SSE 02:40:48 14° SSE 02:42:00 10° SSE visible
26 Sep 13.7 19:17:33 10° NNW 19:33:10 23° NNE 19:43:17 18° NE visible
26 Sep 13.4 21:42:28 10° NW 21:56:01 37° NNW 21:56:01 37° NNW visible
27 Sep 12.8 03:00:57 14° S 03:00:57 14° S 03:02:28 10° S visible
27 Sep 13.5 19:39:38 10° NNW 19:57:09 28° NNE 20:03:18 25° NE visible
27 Sep 13.4 22:04:19 10° NW 22:16:02 36° NNW 22:16:02 36° NNW visible
